Regional Weather Roundup
Issued by NWS

Home | Current Version | Previous Version | Text Only | Print | Product List | Glossary Off
Versions: 1 2 3 4 5 6 7 8 9 10 11 12 13 14 15 16 17 18 19 20 21 22 23 24 25 26 27 28 29 30 31 32 33 34 35 36 37 38 39 40 41 42 43 44 45 46 47 48 49 50

000
ASUS43 KBIS 061202
RWRND

NORTH DAKOTA REGIONAL WEATHER ROUNDUP
NATIONAL WEATHER SERVICE BISMARCK ND
600 AM CST SAT FEB 06 2016

NOTE: "FAIR" INDICATES FEW OR NO CLOUDS BELOW 12,000 FEET WITH NO
SIGNIFICANT WEATHER AND/OR OBSTRUCTIONS TO VISIBILITY.


NDZ001>003-009>011-017-061300-
NORTHWEST NORTH DAKOTA

CITY           SKY/WX    TMP DP  RH WIND       PRES   REMARKS
WILLISTON      CLOUDY    34  26  72 SW8       29.79F
6HR MIN TEMP:  24; 6HR MAX TEMP:  34;

MINOT          CLOUDY    37  23  56 SW10      29.75F
MINOT AFB      CLOUDY    35  27  73 W14       29.74F
$$

NDZ018>021-031>035-040>046-061300-
SOUTHWEST NORTH DAKOTA

CITY           SKY/WX    TMP DP  RH WIND       PRES   REMARKS
BISMARCK       CLOUDY    34  24  67 SW6       29.87F
6HR MIN TEMP:  23; 6HR MAX TEMP:  34;

DICKINSON      CLOUDY    33  21  61 W14       29.85S
GARRISON         N/A     31  24  75 SW12      29.80F
6HR MIN TEMP:  21; 6HR MAX TEMP:  31;

HETTINGER ARPT CLOUDY    33  21  61 W13       29.92F
$$

NDZ004>008-012>016-024-026-027-054-061300-
NORTHEAST NORTH DAKOTA

CITY           SKY/WX    TMP DP  RH WIND       PRES   REMARKS
GRAND FORKS    CLEAR     20  16  84 S9        29.89F WCI   9
GRND FRKS AFB  CLOUDY    18  15  88 S8        29.87F WCI   8
DEVILS LAKE    CLOUDY    29  24  82 S8        29.81F
$$

NDZ022-023-025-028>030-036>039-047>053-061300-
SOUTHEAST NORTH DAKOTA

CITY           SKY/WX    TMP DP  RH WIND       PRES   REMARKS
FARGO          CLEAR     23  17  78 S13       29.93F WCI  11
6HR MIN TEMP:  20; 6HR MAX TEMP:  23;

JAMESTOWN      CLOUDY    30  22  72 SW14      29.86F WCI  19
$$




USA.gov is the U.S. government's official web portal to all federal, state and local government web resources and services.